SCP
0 0 0 0 0 0 0 0 0 0 0 0 0 0 0 0 0 0 0 0 0 0 0 0 0 0 0 0 0 0 0 0 0 0 0 0 0 0 0 0 0 0 0
0 0 0 0 0 0 0 0 0 0 0 0 0 0 0 0 0 0 0 0 0 0 0 0 0 0 0 0 0 0 0 0 0 0 0 0 0 0 0 0 0 0 0
0 0 0 0 0 0 0 0 0 0 0 0 0 0 0 0 0 0 0 0 0 0 0 0 0 0 0 0 0 0 0 0 0 0 0 0 0 0 0 0 0 0 0
0 0 0 0 0 0 0 0 0 0 0 0 0 0 0 0 0 0 0 0 0 0 0 0 0 0 0 0 0 0 0 0 0 0 0 0 0 0 0 0 0 0 0
0 0 0 0 0 0 0 0 0 0 0 0 0 0 0 0 0 0 0 0 0 0 0 0 0 0 0 0 0 0 0 0 0 0 0 0 0 0 0 0 0 0 0
0 0 0 0 0 0 0 0 0 0 0 0 0 0 0 0 0 0 0 0 0 0 0 0 0 0 0 0 0 0 0 0 0 0 0 0 0 0 0 0 0 0 0
0 0 0 0 0 0 0 0 0 0 0 0 0 0 0 0 0 0 0 0 0 0 0 0 0 0 0 0 0 0 0 0 0 0 0 0 0 0 0 0 0 0 0
0 0 0 0 0 0 0 0 0 0 0 0 0 0 0 0 0 0 0 0 0 0 0 0 0 0 0 0 0 0 0 0 0 0 0 0 0 0 0 0 0 0 0
0 0 0 0 0 0 0 0 0 0 0 0 0 0 0 0 0 0 0 0 0 0 0 0 0 0 0 0 0 0 0 0 0 0 0 0 0 0 0 0 0 0 0
0 0 0 0 0 0 0 0 0 0 0 0 0 0 0 0 0 0 0 0 0 0 0 0 0 0 0 0 0 0 0 0 0 0 0 0 0 0 0 0 0 0 0
0 0 0 0 0 0 0 0 0 0 0 0 0 0 0 0 0 0 0 0 0 0 0 0 0 0 0 0 0 0 0 0 0 0 0 0 0 0 0 0 0 0 0
0 0 0 0 0 0 0 0 0 0 0 0 0 0 0 0 0 0 0 0 0 0 0 0 0 0 0 0 0 0 0 0 0 0 0 0 0 0 0 0 0 0 0
0 0 0 0 0 0 0 0 0 0 0 0 0 0 0 0 0 0 0 0 0 0 0 0 0 0 0 0 0 0 0 0 0 0 0 0 0 0 0 0 0 0 0
0 0 0 0 0 0 0 0 0 0 0 0 0 0 0 0 0 0 0 0 0 0 0 0 0 0 0 0 0 0 0 0 0 0 0 0 0 0 0 0 0 0 0
0 0 0 0 0 0 0 0 0 0 0 0 0 0 0 0 0 0 0 0 0 0 0 0 0 0 0 0 0 0 0 0 0 0 0 0 0 0 0 0 0 0 0
0 0 0 0 0 0 0 0 0 0 0 0 0 0 0 0 0 0 0 0 0 0 0 0 0 0 0 0 0 0 0 0 0 0 0 0 0 0 0 0 0 0 0
0 0 0 0 0 0 0 0 0 0 0 0 0 0 0 0 0 0 0 0 0 0 0 0 0 0 0 0 0 0 0 0 0 0 0 0 0 0 0 0 0 0 0
0 0 0 0 0 0 0 0 0 0 0 0 0 0 0 0 0 0 0 0 0 0 0 0 0 0 0 0 0 0 0 0 0 0 0 0 0 0 0 0 0 0 0
0 0 0 0 0 0 0 0 0 0 0 0 0 0 0 0 0 0 0 0 0 0 0 0 0 0 0 0 0 0 0 0 0 0 0 0 0 0 0 0 0 0 0
0 0 0 0 0 0 0 0 0 0 0 0 0 0 0 0 0 0 0 0 0 0 0 0 0 0 0 0 0 0 0 0 0 0 0 0 0 0 0 0 0 0 0
0 0 0 0 0 0 0 0 0 0 0 0 0 0 0 0 0 0 0 0 0 0 0 0 0 0 0 0 0 0 0 0 0 0 0 0 0 0 0 0 0 0 0
0 0 0 0 0 0 0 0 0 0 0 0 0 0 0 0 0 0 0 0 0 0 0 0 0 0 0 0 0 0 0 0 0 0 0 0 0 0 0 0 0 0 0
0 0 0 0 0 0 0 0 0 0 0 0 0 0 0 0 0 0 0 0 0 0 0 0 0 0 0 0 0 0 0 0 0 0 0 0 0 0 0 0 0 0 0
0 0 0 0 0 0 0 0 0 0 0 0 0 0 0 0 0 0 0 0 0 0 0 0 0 0 0 0 0 0 0 0 0 0 0 0 0 0 0 0 0 0 0
0 0 0 0 0 0 0 0 0 0 0 0 0 0 0 0 0 0 0 0 0 0 0 0 0 0 0 0 0 0 0 0 0 0 0 0 0 0 0 0 0 0 0
0 0 0 0 0 0 0 0 0 0 0 0 0 0 0 0 0 0 0 0 0 0 0 0 0 0 0 0 0 0 0 0 0 0 0 0 0 0 0 0 0 0 0
Wind_Speed
3 3 4 4 4 4 5 5 5 4 5 5 5 5 5 5 5 5 5 5 6 5 5 6 5 4 4 4 4 4 4 4 4 3 2 2 4 4 3 4 4 5 4
3 3 4 3 4 5 5 5 5 5 5 6 6 6 6 6 6 6 6 6 6 7 7 6 6 5 6 5 4 5 5 5 4 4 3 3 4 5 4 4 4 4 4
3 3 3 3 4 5 5 5 5 5 5 6 6 7 7 7 7 7 7 7 6 7 7 7 7 7 7 5 6 5 5 4 4 4 4 3 3 3 4 4 4 4 4
3 3 3 4 4 4 5 5 5 5 6 6 7 7 7 7 7 7 7 7 7 6 7 7 7 8 8 7 6 6 5 5 5 4 4 3 3 3 4 4 4 4 4
3 3 4 4 4 4 4 5 5 5 6 6 6 6 7 6 7 7 7 7 7 6 6 7 7 7 8 7 6 6 6 5 5 5 4 4 4 4 5 4 5 3 4
4 4 4 4 4 4 4 4 5 5 5 5 6 6 7 6 8 9 8 7 6 6 6 6 6 8 9 10 10 10 9 8 7 6 6 6 6 6 5 4 4 3 4
4 4 4 4 4 4 4 4 4 5 5 5 6 6 6 7 9 10 10 7 7 7 6 6 5 6 8 7 8 9 9 10 10 7 7 7 7 6 5 6 5 5 4
4 4 4 3 4 3 4 4 4 4 5 5 5 6 6 6 8 9 10 7 6 6 6 6 6 6 6 6 6 6 6 6 7 6 6 6 6 6 6 5 5 4 3
4 4 4 4 4 4 4 4 3 3 4 4 5 5 6 6 7 8 8 5 5 5 5 6 6 6 8 8 6 5 4 4 4 5 5 5 6 6 5 3 4 4 3
4 4 4 4 3 4 4 4 3 3 3 3 4 4 5 5 6 6 6 4 4 4 4 5 7 7 9 9 7 6 6 5 4 3 4 4 5 5 6 5 5 4 3
4 3 3 3 3 3 3 3 3 3 3 3 3 4 4 4 5 6 5 3 3 4 3 4 4 8 9 9 7 6 6 5 4 4 3 3 3 3 3 3 3 4 4
3 3 3 3 2 2 2 2 3 3 3 3 3 3 2 3 4 5 5 5 4 3 3 3 3 6 7 7 6 5 6 5 3 3 3 3 3 3 2 2 2 2 1
2 2 2 2 2 2 2 2 2 3 3 3 2 2 2 2 2 4 5 4 4 3 2 3 3 4 4 4 5 5 4 3 3 3 3 3 2 2 2 2 1 1 0
2 2 2 1 2 1 1 2 2 2 2 2 2 2 2 2 2 2 2 2 3 3 2 2 3 3 3 3 3 3 2 2 2 2 2 1 1 2 2 2 2 2 1
2 2 2 1 1 1 1 1 2 2 3 3 2 2 2 2 3 3 2 2 2 3 2 2 1 2 2 2 1 1 1 2 2 1 2 2 2 2 2 2 2 2 2
2 2 1 1 1 1 1 1 1 1 2 2 2 2 1 1 2 3 4 4 4 5 4 3 2 2 2 2 2 2 2 2 2 1 2 2 2 2 2 2 2 2 2
2 2 2 1 1 1 1 0 0 1 1 0 1 1 1 1 2 2 3 4 4 4 3 3 2 2 2 2 1 1 1 1 1 2 2 2 2 2 2 2 2 2 2
2 2 2 1 1 1 1 1 1 1 0 0 0 1 1 1 2 2 3 3 2 2 2 2 2 2 1 1 1 1 1 1 1 1 1 1 1 2 2 2 2 2 2
2 2 1 1 1 1 1 1 1 1 1 1 1 1 1 1 1 1 2 1 2 2 2 1 1 1 1 1 1 1 1 1 1 1 1 1 1 2 2 2 2 3 3
2 2 1 1 1 1 1 1 1 1 1 1 1 1 1 1 1 1 1 1 1 2 2 1 1 1 1 1 1 1 1 1 1 1 1 1 1 1 2 2 2 2 2
1 1 1 1 1 1 1 1 1 1 1 1 1 1 2 1 1 1 1 1 1 1 1 1 1 1 1 1 1 1 1 1 1 1 1 1 1 1 1 2 2 2 2
1 1 1 1 1 1 1 1 1 1 1 1 1 1 2 1 1 1 1 1 1 1 1 1 1 1 1 1 1 2 2 2 2 2 1 1 1 2 2 2 2 2 3
1 1 1 1 0 1 0 0 1 1 1 1 1 1 1 1 1 1 1 0 1 1 1 1 1 1 1 1 1 2 2 2 2 2 2 2 2 2 2 2 3 3 3
1 1 1 0 0 1 1 1 1 1 1 1 1 1 1 1 1 1 1 0 0 0 0 1 1 1 2 1 1 1 2 2 2 3 4 3 3 3 2 3 3 3 3
1 1 1 1 1 1 1 1 1 0 1 1 1 1 1 1 1 1 0 0 1 1 1 1 1 2 2 3 3 3 4 5 5 3 3 3 4 3 3 3 3 4 4
0 1 1 0 1 1 1 1 1 1 1 0 0 0 1 1 1 1 1 1 1 1 1 1 2 3 3 3 4 5 6 6 6 6 4 3 4 4 4 3 4 4 4
Wind_Direction
246 240 237 230 225 225 224 223 217 212 206 205 207 209 212 215 213 212 215 214 209 209 209 210 214 212 216 208 209 214 222 226 238 251 242 233 232 239 238 244 240 240 236
252 244 241 240 231 229 227 226 219 216 213 211 211 212 213 214 214 215 215 216 218 213 210 210 213 212 221 214 209 216 219 219 226 237 240 231 237 236 240 244 244 243 243
253 249 249 244 239 235 230 226 223 219 218 217 213 214 215 216 216 219 219 220 223 220 213 212 213 211 217 217 215 218 218 217 225 230 238 242 242 230 238 241 244 244 243
255 256 258 255 244 239 234 226 224 221 219 218 217 217 217 216 216 217 220 223 223 223 218 218 217 214 216 216 216 217 215 216 218 221 230 234 237 230 231 233 240 237 238
260 260 262 264 255 244 237 230 224 222 222 219 218 217 217 216 215 216 217 220 221 222 221 220 220 219 220 220 220 214 210 214 214 216 222 228 227 218 225 228 240 245 243
260 260 265 266 254 243 239 233 225 222 221 217 216 215 215 218 221 221 220 218 220 220 222 221 219 216 217 224 229 225 216 213 215 218 223 225 230 229 228 224 228 231 243
267 266 263 262 260 249 241 232 228 223 220 219 218 217 220 225 223 221 219 220 218 219 221 220 219 219 217 220 225 228 225 225 224 224 227 230 231 226 220 221 226 234 246
271 273 266 258 262 257 241 235 234 229 222 221 223 223 225 229 229 224 217 218 219 219 219 220 220 217 214 213 216 221 224 227 230 231 231 235 238 229 222 225 231 243 266
273 277 277 262 253 251 242 239 236 228 229 227 225 224 227 230 228 223 217 211 212 217 216 219 221 216 209 207 205 208 219 230 231 234 239 238 235 230 221 210 210 217 239
279 281 279 271 261 250 245 238 234 226 226 227 227 226 226 229 221 214 213 208 210 215 219 220 223 222 210 204 201 200 212 219 210 213 222 229 232 225 219 219 215 219 233
290 283 275 270 263 256 252 239 223 219 219 222 226 231 230 230 218 210 211 205 208 213 220 224 223 221 216 211 211 209 210 207 205 207 213 217 220 220 216 218 220 224 228
292 276 268 270 269 256 243 233 215 204 207 215 219 230 232 224 220 213 211 211 208 208 220 231 227 217 212 213 214 207 203 200 190 197 205 209 211 212 205 204 205 216 255
290 279 273 272 271 262 240 223 212 204 206 210 214 220 227 226 218 215 211 212 216 216 222 223 213 198 200 204 202 202 200 191 189 199 210 213 208 194 173 161 156 142 112
281 285 285 272 276 277 254 229 216 207 206 208 210 216 223 222 213 201 200 202 205 211 212 206 204 191 188 185 185 200 208 201 198 208 210 194 174 176 183 179 176 169 176
279 281 280 280 285 287 281 267 252 249 231 219 218 218 213 222 222 209 193 198 197 193 175 172 172 170 179 182 180 185 191 188 193 190 189 183 177 178 183 183 189 186 198
269 273 268 263 264 268 282 338 345 285 281 261 246 246 253 246 218 202 200 194 188 175 167 170 177 185 190 194 196 192 189 194 189 183 186 184 182 186 184 179 185 187 190
261 267 266 260 252 248 240 216 359 20 32 244 218 215 215 199 192 183 180 177 167 161 163 168 172 176 180 182 186 185 190 198 187 182 186 189 185 187 188 185 184 183 184
265 265 264 256 249 241 235 229 211 195 207 99 126 154 151 181 186 165 165 160 161 157 144 153 159 160 163 171 173 174 170 167 172 181 186 187 189 190 190 191 192 187 188
271 267 266 268 256 246 239 230 211 197 185 170 130 109 109 121 151 121 129 149 150 144 137 137 144 148 151 156 161 162 166 173 178 182 195 198 195 194 194 194 192 189 198
269 275 280 267 243 231 226 219 197 182 180 183 191 181 144 143 139 112 94 114 140 142 138 136 134 131 146 158 162 156 160 174 183 192 205 216 219 209 203 203 204 206 210
272 254 254 247 221 216 208 211 208 201 202 207 213 185 158 153 156 144 134 137 144 147 147 145 150 157 168 166 170 174 181 195 204 214 221 222 216 219 226 218 211 211 213
273 261 247 233 228 226 213 209 209 196 186 188 165 148 159 147 151 153 131 112 113 126 148 159 170 181 185 187 190 192 201 209 212 214 220 221 221 222 220 222 223 215 212
269 263 265 251 227 209 200 179 171 174 175 169 151 143 149 156 146 146 141 130 116 121 137 160 178 192 190 209 218 212 215 220 222 219 215 215 218 225 223 218 217 227 225
247 242 246 244 213 201 194 174 163 160 148 130 124 128 138 146 152 157 172 168 147 152 158 176 201 211 224 238 233 228 228 230 226 220 217 216 219 223 223 224 225 225 228
225 223 229 233 217 199 182 162 151 149 148 150 147 148 152 159 174 189 188 174 187 204 218 228 219 223 227 236 242 241 234 237 238 220 210 213 217 221 223 228 227 226 226
209 212 222 224 223 218 207 202 194 189 190 182 182 192 194 201 210 217 213 205 208 225 240 239 229 232 241 241 238 238 241 244 241 232 222 214 214 218 217 222 226 226 226